Superior, WI

12:04 AM CDT on July 22, 2017 (GMT -0500)
Bong

Weather History for KSUW - November, 2012

Change the Weather History Date:

Saturday, November 10, 2012

  Actual Average Record
Temperature  
Mean Temperature 38 °F -  
Max Temperature 42 °F 38 °F 67 °F (2016)
Min Temperature 35 °F 26 °F 4 °F (1979)
Degree Days  
Heating Degree Days 26    
Moisture  
Dew Point 39 °F    
Average Humidity 96    
Maximum Humidity 100    
Minimum Humidity 82    
Precipitation  
Precipitation 0.20 in - - ()
Sea Level Pressure  
Sea Level Pressure 29.74 in    
Wind  
Wind Speed 16 mph (ENE)    
Max Wind Speed 21 mph    
Max Gust Speed 30 mph    
Visibility 4 miles    
Events Rain , Snow    
Averages and records for this station are not official NWS values.
T = Trace of Precipitation, MM = Missing Value Source: NWS Daily Summary

Daily Weather History Graph

Daily Weather History Graph

Search for Another Location

Airport or City:

Trip Planner

Search our weather history database for the weather conditions in past years. The results will help you decide how hot, cold, wet, or windy it might be!

Date:

Astronomy

Nov. 10, 2012 Rise Set
Actual Time 7:04 AM CST 4:39 PM CST
Civil Twilight 6:31 AM CST 5:12 PM CST
Nautical Twilight 5:55 AM CST 5:48 PM CST
Astronomical Twilight 5:19 AM CST 6:24 PM CST
Moon 2:57 AM CST (11/10) 2:37 PM CST (11/10)
Length of Visible Light 10h 40m
Length of Day
9h 35m
Waning Crescent, 14% of the Moon is Illuminated
Nov 10
Waning Crescent
Nov 13
New
Nov 20
First Quarter
Nov 28
Full
Dec 6
Last Quarter

Hourly Weather History & Observations

Time (CST) Temp. Windchill Dew Point Humidity Pressure Visibility Wind Dir Wind Speed Gust Speed Precip Events Conditions
4:15 AM 36.7 °F 28.0 °F 31.6 °F 82% 29.99 in 10.0 mi East 13.8 mph 26.5 mph N/A   Drizzle
4:35 AM 35.8 °F 26.1 °F 32.0 °F 86% 29.99 in 10.0 mi East 16.1 mph 25.3 mph N/A   Light Drizzle
4:55 AM 35.6 °F 25.5 °F 32.0 °F 87% 29.98 in 5.0 mi East 17.3 mph 24.2 mph N/A Rain Light Rain
5:15 AM 35.2 °F 25.0 °F 32.9 °F 91% 29.97 in 4.0 mi East 17.3 mph 26.5 mph N/A Snow Light Snow
5:35 AM 35.4 °F 24.6 °F 32.9 °F 91% 29.96 in 4.0 mi East 19.6 mph 27.6 mph N/A Rain Light Rain
5:55 AM 35.6 °F 25.5 °F 33.1 °F 91% 29.95 in 10.0 mi East 17.3 mph 28.8 mph N/A   Overcast
6:35 AM 35.8 °F 25.7 °F 33.8 °F 92% 29.94 in 7.0 mi East 17.3 mph 27.6 mph N/A   Overcast
6:55 AM 36.1 °F 26.5 °F 33.8 °F 91% 29.95 in 10.0 mi East 16.1 mph 25.3 mph N/A   Overcast
7:15 AM 36.1 °F 26.2 °F 34.7 °F 94% 29.93 in 4.0 mi East 17.3 mph 29.9 mph 0.06 in Rain Light Rain
7:35 AM 36.5 °F 26.0 °F 34.7 °F 93% 29.92 in 10.0 mi East 19.6 mph 25.3 mph 0.06 in   Light Drizzle
7:55 AM 36.7 °F 26.0 °F 34.7 °F 93% 29.91 in 5.0 mi East 20.7 mph 27.6 mph 0.08 in Snow Light Snow
8:15 AM 36.9 °F 26.5 °F 35.2 °F 94% 29.89 in 5.0 mi East 19.6 mph 27.6 mph 0.04 in Rain Light Rain
8:35 AM 37.0 °F 28.1 °F 35.6 °F 95% 29.88 in 10.0 mi East 15.0 mph 24.2 mph 0.04 in   Overcast
8:55 AM 37.4 °F 27.5 °F 35.8 °F 94% 29.87 in 10.0 mi East 18.4 mph 23.0 mph 0.04 in   Overcast
9:15 AM 37.6 °F 28.1 °F 35.6 °F 93% 29.86 in 10.0 mi East 17.3 mph 24.2 mph N/A   Overcast
9:35 AM 37.9 °F 28.2 °F 36.1 °F 93% 29.85 in 10.0 mi East 18.4 mph 26.5 mph N/A   Overcast
9:55 AM 38.3 °F 29.3 °F 36.5 °F 93% 29.85 in 10.0 mi East 16.1 mph 21.9 mph N/A   Overcast
10:15 AM 38.3 °F 28.7 °F 36.9 °F 95% 29.83 in 4.0 mi East 18.4 mph 23.0 mph 0.02 in Rain Light Rain
10:35 AM 38.8 °F 30.4 °F 37.6 °F 95% 29.81 in 3.0 mi East 15.0 mph 20.7 mph 0.02 in Rain Light Rain
10:55 AM 38.7 °F 29.5 °F 37.6 °F 96% 29.80 in 2.5 mi East 17.3 mph 25.3 mph 0.02 in   Overcast
11:15 AM 38.8 °F 30.8 °F 37.9 °F 97% 29.80 in 2.0 mi East 13.8 mph 24.2 mph N/A   Overcast
11:35 AM 39.2 °F 30.8 °F 38.5 °F 97% 29.77 in 1.8 mi East 15.0 mph 20.7 mph N/A   Drizzle
11:55 AM 39.6 °F 31.3 °F 39.0 °F 98% 29.76 in 1.5 mi East 15.0 mph 23.0 mph 0.01 in Rain Light Rain
12:15 PM 40.1 °F 31.0 °F 39.2 °F 97% 29.74 in 1.5 mi East 18.4 mph 24.2 mph N/A   Light Drizzle
12:35 PM 40.3 °F 32.6 °F 39.7 °F 98% 29.74 in 2.5 mi East 13.8 mph 21.9 mph 0.01 in Rain Light Rain
12:55 PM 40.6 °F 32.7 °F 39.9 °F 97% 29.72 in 3.0 mi ENE 15.0 mph 24.2 mph 0.01 in   Overcast
1:15 PM 40.6 °F 33.0 °F 39.9 °F 97% 29.71 in 4.0 mi East 13.8 mph 23.0 mph N/A   Overcast
1:35 PM 41.0 °F 33.1 °F 40.1 °F 97% 29.70 in 5.0 mi East 15.0 mph 21.9 mph N/A   Overcast
1:55 PM 41.0 °F 32.8 °F 40.3 °F 97% 29.70 in 2.5 mi ENE 16.1 mph 21.9 mph N/A   Overcast
2:15 PM 41.0 °F 33.5 °F 40.5 °F 98% 29.69 in 1.8 mi ENE 13.8 mph 20.7 mph N/A   Light Drizzle
2:35 PM 41.0 °F 33.5 °F 40.6 °F 99% 29.69 in 2.0 mi ENE 13.8 mph 20.7 mph N/A Rain Light Rain
2:55 PM 41.2 °F 33.7 °F 41.0 °F 99% 29.69 in 2.5 mi ENE 13.8 mph 19.6 mph N/A   Light Drizzle
3:15 PM 41.2 °F 33.7 °F 41.0 °F 99% 29.68 in 2.5 mi ENE 13.8 mph 19.6 mph 0.01 in Rain Light Rain
3:35 PM 41.4 °F 34.0 °F 41.0 °F 99% 29.68 in 2.5 mi ENE 13.8 mph 23.0 mph 0.01 in   Light Drizzle
3:55 PM 41.4 °F 34.3 °F 41.0 °F 99% 29.67 in 2.0 mi ENE 12.7 mph 23.0 mph 0.01 in Rain Light Rain
4:15 PM 41.4 °F 33.6 °F 41.0 °F 99% 29.66 in 3.0 mi ENE 15.0 mph 20.7 mph N/A Rain Light Rain
4:35 PM 41.4 °F 34.0 °F 41.2 °F 99% 29.66 in 3.0 mi ENE 13.8 mph 25.3 mph 0.01 in   Drizzle
4:55 PM 41.4 °F 34.0 °F 41.2 °F 99% 29.65 in 7.0 mi ENE 13.8 mph 23.0 mph 0.01 in   Overcast
5:15 PM 41.7 °F 34.1 °F 41.4 °F 99% 29.65 in 7.0 mi ENE 15.0 mph 23.0 mph N/A   Overcast
5:35 PM 41.7 °F 35.2 °F 41.4 °F 99% 29.66 in 5.0 mi ENE 11.5 mph 23.0 mph N/A   Overcast
5:55 PM 41.7 °F 34.1 °F 41.4 °F 99% 29.65 in 5.0 mi ENE 15.0 mph 20.7 mph N/A   Overcast
6:15 PM 41.9 °F 34.3 °F 41.5 °F 99% 29.64 in 5.0 mi ENE 15.0 mph 19.6 mph N/A   Overcast
6:35 PM 41.9 °F 35.0 °F 41.5 °F 99% 29.64 in 5.0 mi ENE 12.7 mph 19.6 mph N/A   Overcast
6:55 PM 41.9 °F 35.0 °F 41.5 °F 99% 29.63 in 5.0 mi ENE 12.7 mph 21.9 mph N/A   Overcast
7:15 PM 41.9 °F 34.3 °F 41.5 °F 99% 29.62 in 3.0 mi ENE 15.0 mph 20.7 mph N/A   Overcast
7:35 PM 41.9 °F 34.6 °F 41.9 °F 100% 29.61 in 1.8 mi ENE 13.8 mph 19.6 mph N/A   Overcast
7:55 PM 41.9 °F 35.0 °F 41.9 °F 100% 29.61 in 1.2 mi ENE 12.7 mph 21.9 mph N/A   Overcast
8:15 PM 41.9 °F 34.6 °F 41.9 °F 100% 29.59 in 1.0 mi ENE 13.8 mph 23.0 mph N/A   Overcast
8:35 PM 41.9 °F 34.3 °F 41.9 °F 100% 29.59 in 1.0 mi ENE 15.0 mph 19.6 mph N/A   Overcast
8:55 PM 41.9 °F 34.0 °F 41.9 °F 100% 29.57 in 0.8 mi ENE 16.1 mph 24.2 mph N/A   Overcast
9:35 PM 41.9 °F 34.0 °F 41.9 °F 100% 29.55 in 2.5 mi ENE 16.1 mph 21.9 mph N/A   Overcast
10:15 PM 42.1 °F 34.5 °F 41.9 °F 99% 29.54 in 3.0 mi ENE 15.0 mph 23.0 mph N/A   Overcast
10:35 PM 42.1 °F 33.9 °F 42.1 °F 100% 29.53 in 3.0 mi ENE 17.3 mph 23.0 mph N/A   Overcast
10:55 PM 42.1 °F 35.2 °F 42.1 °F 100% 29.52 in 3.0 mi ENE 12.7 mph 20.7 mph N/A   Overcast
11:15 PM 42.1 °F 34.2 °F 41.9 °F 99% 29.51 in 5.0 mi ENE 16.1 mph 20.7 mph 0.01 in   Overcast
11:35 PM 42.1 °F 36.1 °F 41.9 °F 99% 29.50 in 4.0 mi ENE 10.4 mph 17.3 mph 0.01 in   Overcast
11:55 PM 42.8 °F 41.1 °F 42.3 °F 98% 29.54 in 4.0 mi NNE 3.5 mph - 0.02 in Rain Light Rain